• In Belgium
  • List of Countries
  • For 7 days
  • Water Temperature
  • Satellite Maps
  • Weather Map
  • Weather Widgets
  • user-avatar
    Login

    Hourly Weather Bethlehem

    Today, 24 June, Sunday

    Time Temperature Precipitation Wind Pressure Humidity
    00:00 +17°C° 0 mm 0 mps 745 mmHg 94%
    01:00 +17°C° 0 mm 0 mps 745 mmHg 94%
    02:00 +18°C° 0 mm 0 mps 745 mmHg 95%
    03:00 +20°C° 0 mm 1 mps 746 mmHg 95%
    04:00 +20°C° 0 mm 1 mps 746 mmHg 95%
    05:00 +21°C° 0 mm 1 mps 746 mmHg 94%
    06:00 +22°C° 0 mm 1 mps 746 mmHg 92%
    07:00 +22°C° 0 mm 1 mps 747 mmHg 91%
    08:00 +24°C° 0 mm 2 mps 747 mmHg 83%
    09:00 +26°C° 0 mm 2 mps 747 mmHg 74%
    10:00 +28°C° 0 mm 3 mps 747 mmHg 66%
    11:00 +28°C° 0.5 mm 3 mps 746 mmHg 67%
    12:00 +29°C° 0.5 mm 3 mps 746 mmHg 69%
    13:00 +29°C° 0.5 mm 4 mps 746 mmHg 70%
    14:00 +29°C° 0.6 mm 4 mps 746 mmHg 72%
    15:00 +28°C° 0.6 mm 4 mps 746 mmHg 75%
    16:00 +28°C° 0.6 mm 4 mps 746 mmHg 78%
    17:00 +27°C° 0.6 mm 3 mps 746 mmHg 81%
    18:00 +26°C° 0.6 mm 3 mps 746 mmHg 83%
    19:00 +25°C° 0.6 mm 2 mps 746 mmHg 86%
    20:00 +24°C° 0 mm 2 mps 746 mmHg 88%
    21:00 +23°C° 0 mm 2 mps 747 mmHg 89%
    22:00 +21°C° 0 mm 2 mps 747 mmHg 91%
    23:00 +21°C° 0 mm 2 mps 747 mmHg 92%

    Tomorrow, 25 June, Monday

    Time Temperature Precipitation Wind Pressure Humidity
    00:00 +20°C° 0 mm 3 mps 747 mmHg 92%
    01:00 +19°C° 0 mm 3 mps 747 mmHg 93%
    02:00 +19°C° 0 mm 3 mps 748 mmHg 92%
    03:00 +18°C° 0 mm 3 mps 748 mmHg 92%
    04:00 +17°C° 0 mm 3 mps 748 mmHg 92%
    05:00 +18°C° 0 mm 4 mps 749 mmHg 88%
    06:00 +19°C° 0 mm 4 mps 749 mmHg 83%
    07:00 +19°C° 0 mm 5 mps 750 mmHg 79%
    08:00 +21°C° 0 mm 5 mps 750 mmHg 70%
    09:00 +22°C° 0 mm 5 mps 751 mmHg 61%
    10:00 +25°C° 0 mm 5 mps 751 mmHg 51%
    11:00 +26°C° 0 mm 5 mps 751 mmHg 47%
    12:00 +27°C° 0 mm 5 mps 751 mmHg 42%
    13:00 +28°C° 0 mm 5 mps 751 mmHg 37%
    14:00 +28°C° 0 mm 4 mps 751 mmHg 38%
    15:00 +28°C° 0 mm 4 mps 751 mmHg 38%
    16:00 +28°C° 0 mm 4 mps 751 mmHg 39%
    17:00 +26°C° 0 mm 4 mps 752 mmHg 43%
    18:00 +23°C° 0 mm 4 mps 752 mmHg 47%
    19:00 +20°C° 0 mm 4 mps 753 mmHg 51%
    20:00 +19°C° 0 mm 3 mps 753 mmHg 51%
    21:00 +18°C° 0 mm 3 mps 754 mmHg 51%
    22:00 +17°C° 0 mm 3 mps 755 mmHg 51%
    23:00 +16°C° 0 mm 3 mps 755 mmHg 53%

    Day after tomorrow, 26 June, Tuesday

    Time Temperature Precipitation Wind Pressure Humidity
    00:00 +16°C° 0 mm 3 mps 755 mmHg 55%
    01:00 +14°C° 0 mm 3 mps 755 mmHg 58%
    02:00 +14°C° 0 mm 2 mps 756 mmHg 60%
    03:00 +13°C° 0 mm 2 mps 756 mmHg 63%
    04:00 +13°C° 0 mm 2 mps 756 mmHg 66%
    05:00 +14°C° 0 mm 1 mps 756 mmHg 63%
    06:00 +16°C° 0 mm 1 mps 757 mmHg 61%
    07:00 +18°C° 0 mm 1 mps 757 mmHg 58%
    08:00 +20°C° 0 mm 1 mps 757 mmHg 51%
    09:00 +22°C° 0 mm 1 mps 757 mmHg 44%
    10:00 +25°C° 0 mm 1 mps 757 mmHg 37%
    11:00 +26°C° 0 mm 1 mps 757 mmHg 35%
    12:00 +27°C° 0 mm 1 mps 757 mmHg 33%
    13:00 +28°C° 0 mm 1 mps 756 mmHg 32%
    14:00 +28°C° 0 mm 1 mps 756 mmHg 33%
    15:00 +28°C° 0 mm 1 mps 755 mmHg 34%
    16:00 +28°C° 0 mm 1 mps 755 mmHg 35%
    17:00 +26°C° 0 mm 1 mps 755 mmHg 42%
    18:00 +24°C° 0 mm 1 mps 755 mmHg 50%
    19:00 +22°C° 0 mm 1 mps 755 mmHg 57%
    20:00 +20°C° 0 mm 2 mps 755 mmHg 59%
    21:00 +19°C° 0 mm 2 mps 755 mmHg 61%
    22:00 +17°C° 0 mm 2 mps 755 mmHg 63%
    23:00 +18°C° 0 mm 1 mps 755 mmHg 68%

    27 June, Wednesday

    Time Temperature Precipitation Wind Pressure Humidity
    00:00 +16°C° 0 mm 1 mps 755 mmHg 73%
    01:00 +15°C° 0 mm 1 mps 755 mmHg 78%
    02:00 +15°C° 0 mm 1 mps 754 mmHg 82%
    03:00 +14°C° 0 mm 1 mps 754 mmHg 86%
    04:00 +14°C° 0 mm 1 mps 754 mmHg 89%
    05:00 +16°C° 0 mm 1 mps 754 mmHg 87%
    06:00 +18°C° 0 mm 1 mps 754 mmHg 84%
    07:00 +19°C° 0 mm 2 mps 754 mmHg 81%
    08:00 +21°C° 0 mm 2 mps 753 mmHg 75%
    09:00 +24°C° 0 mm 3 mps 753 mmHg 68%
    10:00 +26°C° 0 mm 4 mps 753 mmHg 62%
    11:00 +27°C° 0 mm 4 mps 752 mmHg 60%
    12:00 +28°C° 0 mm 4 mps 752 mmHg 57%
    13:00 +29°C° 0 mm 5 mps 751 mmHg 55%
    14:00 +29°C° 0 mm 5 mps 750 mmHg 56%
    15:00 +29°C° 0 mm 5 mps 750 mmHg 57%
    16:00 +30°C° 0 mm 5 mps 749 mmHg 57%
    17:00 +28°C° 0 mm 5 mps 749 mmHg 62%
    18:00 +27°C° 0 mm 5 mps 749 mmHg 66%
    19:00 +26°C° 0 mm 5 mps 749 mmHg 71%
    20:00 +25°C° 0.1 mm 5 mps 749 mmHg 75%
    21:00 +25°C° 0.1 mm 5 mps 749 mmHg 79%
    22:00 +23°C° 0.1 mm 5 mps 749 mmHg 83%
    23:00 +23°C° 0.8 mm 5 mps 748 mmHg 87%

    28 June, Thursday

    Time Temperature Precipitation Wind Pressure Humidity
    00:00 +23°C° 0.8 mm 5 mps 748 mmHg 91%
    01:00 +23°C° 0.8 mm 4 mps 747 mmHg 94%
    02:00 +23°C° 0.6 mm 4 mps 747 mmHg 95%
    03:00 +23°C° 0.6 mm 4 mps 747 mmHg 95%
    04:00 +23°C° 0.6 mm 4 mps 746 mmHg 96%
    05:00 +23°C° 0.1 mm 4 mps 746 mmHg 95%
    06:00 +23°C° 0.1 mm 4 mps 747 mmHg 94%
    07:00 +25°C° 0.1 mm 4 mps 747 mmHg 94%
    08:00 +26°C° 0.2 mm 4 mps 747 mmHg 88%
    09:00 +27°C° 0.2 mm 4 mps 747 mmHg 82%
    10:00 +28°C° 0.2 mm 4 mps 747 mmHg 77%
    11:00 +29°C° 0.1 mm 4 mps 747 mmHg 72%
    12:00 +30°C° 0.1 mm 4 mps 747 mmHg 67%
    13:00 +30°C° 0.1 mm 4 mps 747 mmHg 62%
    14:00 +32°C° 0 mm 4 mps 747 mmHg 61%
    15:00 +32°C° 0 mm 4 mps 747 mmHg 59%
    16:00 +31°C° 0 mm 3 mps 747 mmHg 58%
    17:00 +29°C° 0 mm 3 mps 747 mmHg 64%
    18:00 +28°C° 0 mm 2 mps 748 mmHg 69%
    19:00 +27°C° 0 mm 2 mps 748 mmHg 75%
    20:00 +26°C° 0 mm 2 mps 748 mmHg 78%
    21:00 +24°C° 0 mm 1 mps 749 mmHg 82%
    22:00 +23°C° 0 mm 1 mps 749 mmHg 85%
    23:00 +23°C° 0 mm 1 mps 749 mmHg 86%

    29 June, Friday

    Time Temperature Precipitation Wind Pressure Humidity
    00:00 +22°C° 0 mm 1 mps 749 mmHg 88%
    01:00 +22°C° 0 mm 1 mps 749 mmHg 89%
    02:00 +21°C° 0 mm 1 mps 750 mmHg 90%
    03:00 +21°C° 0 mm 1 mps 750 mmHg 90%
    04:00 +21°C° 0 mm 1 mps 750 mmHg 91%
    05:00 +22°C° 0 mm 1 mps 751 mmHg 87%
    06:00 +23°C° 0 mm 1 mps 751 mmHg 82%
    07:00 +24°C° 0 mm 1 mps 752 mmHg 78%
    08:00 +26°C° 0 mm 1 mps 752 mmHg 70%
    09:00 +28°C° 0 mm 1 mps 752 mmHg 62%
    10:00 +30°C° 0 mm 2 mps 752 mmHg 54%
    11:00 +31°C° 0 mm 1 mps 752 mmHg 48%
    12:00 +33°C° 0 mm 1 mps 751 mmHg 43%
    13:00 +34°C° 0 mm 1 mps 751 mmHg 38%
    14:00 +34°C° 0 mm 1 mps 751 mmHg 38%
    15:00 +34°C° 0 mm 1 mps 751 mmHg 37%
    16:00 +34°C° 0 mm 1 mps 751 mmHg 37%
    17:00 +32°C° 0 mm 1 mps 751 mmHg 44%
    18:00 +31°C° 0 mm 1 mps 751 mmHg 51%
    19:00 +29°C° 0 mm 1 mps 751 mmHg 59%
    20:00 +27°C° 0 mm 1 mps 751 mmHg 62%
    21:00 +26°C° 0 mm 1 mps 751 mmHg 66%
    22:00 +25°C° 0 mm 1 mps 751 mmHg 69%
    23:00 +24°C° 0 mm 1 mps 751 mmHg 71%
    Show more